Regional Weather Roundup
Issued by NWS

Home | Current Version | Previous Version | Graphics & Text | Print | Product List | Glossary Off
Versions: 1 2 3 4 5 6 7 8 9 10 11 12 13 14 15 16 17 18 19 20 21 22 23 24 25 26 27 28 29 30 31 32 33 34 35 36 37 38 39 40 41 42 43 44 45 46 47 48 49 50

954
ASUS43 KDTX 262210
RWRMI
MICHIGAN HOURLY REGIONAL WEATHER ROUNDUP
NATIONAL WEATHER SERVICE DETROIT/PONTIAC MI
600 PM EDT SUN MAR 26 2017

NOTE: "FAIR" INDICATES FEW OR NO CLOUDS BELOW 12,000 FEET WITH NO
SIGNIFICANT WEATHER AND/OR OBSTRUCTION TO VISIBILITY.

MIZ047>049-052>055-059>063-066>070-074>076-081>083-262300-
SOUTHEAST LOWER MICHIGAN

CITY           SKY/WX    TMP DP  RH WIND       PRES   REMARKS
ADRIAN         LGT RAIN  52  50  93 E5        29.88S FOG
ALMA           CLOUDY    49  48  97 E6        29.87S FOG
ANN ARBOR      CLOUDY    51  50  96 E6        29.88F FOG
BAD AXE        LGT RAIN  45  44  97 SE6       29.89F
CARO           CLOUDY    49  49  98 SE3       29.87F FOG
DETROIT CITY   LGT RAIN  48  47  96 E3        29.90F FOG
DETROIT        CLOUDY    52  50  93 E5        29.90F FOG
FLINT          CLOUDY    51  49  92 S6        29.88S
GROSSE ILE     LGT RAIN  48  47  97 CALM      29.88F
HILLSDALE      CLOUDY    54  52  94 SE3       29.85F
HOWELL         LGT RAIN  51  49  91 SE6       29.87S

CITY           SKY/WX    TMP DP  RH WIND       PRES   REMARKS
JACKSON        PTSUNNY   54  51  90 SE6       29.86F
LAMBERTVILLE   CLOUDY    50  47  88 E3        29.87F FOG
LANSING        CLOUDY    54  49  83 S6        29.86F
LAPEER         DRIZZLE   49  49  97 S6        29.88F
MASON          LGT RAIN  52  51  95 S7        29.86F
MONROE         CLOUDY    47  47  98 E6        29.88S FOG
MT. CLEMENS    LGT RAIN  47  47 100 SE5       29.88F FOG
PONTIAC        CLOUDY    49  47  93 SE7       29.88S FOG
PORT HOPE        N/A     36  35  96 SE9       29.89F WCI  29
PORT HURON     CLOUDY    50  46  87 E5        29.91S FOG
TRI CITIES     CLOUDY    44  43  96 N6        29.88F FOG
MIDLAND        CLOUDY    44  42  93 E5        29.87F FOG
TROY           RAIN      48  46  91 E3        29.91F
SAGINAW HB     CLOUDY    50  45  81 CALM      29.87F
$$
MIZ043>046-050>051-056>058-064>065-071>073-077>080-262300-
SOUTHWEST LOWER MICHIGAN

CITY           SKY/WX    TMP DP  RH WIND       PRES   REMARKS
BATTLE CREEK   LGT RAIN  55  53  93 S6        29.85S
BENTON HARBOR  LGT RAIN  57  53  86 S3        29.83S
BIG RAPIDS     CLOUDY    45  43  93 SE7       29.84F
COLDWATER      LGT RAIN  56  54  92 SE3       29.85S
FREMONT        CLOUDY    47  47  98 SE6       29.83F FOG
HOLLAND        CLOUDY    56  54  93 SE5       29.83S
GRAND RAPIDS   CLOUDY    53  53 100 E3        29.84S FOG
IONIA          CLOUDY    51  49  95 NE3       29.84S
KALAMAZOO      LGT RAIN  55  51  86 S6        29.85S FOG
LUDINGTON      CLOUDY    47  46  99 SE6       29.82S
MARSHALL       CLOUDY    57  53  85 SE3       29.85S
MOUNT PLEASANT CLOUDY    44  42  94 E3        29.86F
MUSKEGON       CLOUDY    52  49  89 SE9       29.83S FOG
SOUTH HAVEN    LGT RAIN  56  55  97 S5        29.82F
$$
MIZ016>042-262300-
NORTHERN LOWER MICHIGAN

CITY           SKY/WX    TMP DP  RH WIND       PRES   REMARKS
ALPENA         LGT RAIN  37  37 100 E9        29.91F FOG     WCI  30
BEAVER ISLAND  DRZL/FOG  34  34 100 E7        29.88F VSB 1/2 WCI  28
BELLAIRE       LGT RAIN  44  41  89 CALM      29.86F
CADILLAC       CLOUDY    43  42  97 SE3       29.83F
CHARLEVOIX     RAIN      41  40  97 E5        29.89F
FRANKFORT      DRIZZLE   47  45  91 SE5       29.84S
GAYLORD        LGT RAIN  43  38  82 SE5       29.85S
GRAYLING       CLOUDY    41  41 100 SE6       29.86F FOG
HARBOR SPRINGS DRIZZLE   38  38  97 E6        29.88R WCI  34
HOUGHTON LAKE  CLOUDY    42  40  92 SE5       29.86F
MANISTEE       LGT RAIN  46  45  96 SE3       29.83S FOG
OSCODA         MIX PCPN  38  37  96 E5        29.90F WCI  34
PELLSTON       LGT RAIN  38  36  92 E6        29.89F FOG     WCI  33
ROGERS CITY    MIX PCPN  37  35  94 E9        29.92S WCI  30
TRAVERSE CITY  CLOUDY    45  42  89 CALM      29.84F
$$
MIZ007>008-015-262300-
EASTERN UPPER MICHIGAN

CITY           SKY/WX    TMP DP  RH WIND       PRES   REMARKS
KINROSS        MIX PCPN  32  32 100 E14       29.91F FOG     WCI  22
MACKINAC ISLAN MIX PCPN  33  33 100 E14G25    29.89F WCI  24
NEWBERRY       CLOUDY    33  33  96 E6        29.90S FOG     WCI  28
S. S. MARIE    LGT RAIN  34  32  92 E8        29.93F FOG     WCI  27
MUNISING         N/A     37  35  92 E7        29.89S WCI  32
$$
MIZ004>006-011>014-085-262300-
CENTRAL UPPER MICHIGAN

CITY           SKY/WX    TMP DP  RH WIND       PRES   REMARKS
MANISTIQUE     FOG       34  34 100 E9        29.89S VSB 3/4 WCI  26
ESCANABA       CLOUDY    36  35  96 NE7       29.89S WCI  30
MENOMINEE        N/A    N/A N/A N/A MISG        N/A
SAWYER-GWINN   CLOUDY    34  32  93 NE5       29.88R FOG     WCI  30
$$
MIZ001>003-009>011-084-262300-
WESTERN UPPER MICHIGAN

CITY           SKY/WX    TMP DP  RH WIND       PRES   REMARKS
IRON MOUNTAIN  CLOUDY    37  33  85 NE3       29.86R
HOUGHTON       CLOUDY    35  32  88 NE5       29.88S WCI  31
COPPER HARBOR    N/A     34  34 100 E5        29.91S WCI  30
IRONWOOD       CLOUDY    35  31  85 N7        29.91R WCI  29
$$

ABBREVIATIONS USED IN REMARKS
   TC - TEMPERATURE IN CELSIUS
  WCI - WIND CHILL INDEX
   HX - HEAT INDEX
  VSB - VISIBILITY





USA.gov is the U.S. government's official web portal to all federal, state and local government web resources and services.